SCP
0 0 0 0 0 0 0 0 0 0 0 -0 -0 -0 -0 0 -0 -0 0 0 0 0 -0 -0 -0 0 0 0 -0 -0 -0 -0 -0 0 0 0 0 0 0 1 0 1 1 1
0 0 0 0 0 0 0 0 0 0 0 -0 -0 -0 -0 -0 -0 -0 0 0 0 0 0 0 0 0 0 0 -0 -0 -0 -0 0 0 0 0 0 0 0 0 1 0 0 0
0 0 0 0 0 0 0 0 0 0 0 -0 -0 -0 -0 -0 -0 0 0 0 0 0 0 0 0 0 0 0 0 0 0 -0 -0 0 0 1 1 0 1 0 0 1 1 0
0 0 0 0 0 0 0 0 0 0 0 -0 -0 -0 0 -0 -0 -0 0 0 0 0 0 0 0 0 0 0 0 1 0 0 -0 -0 -0 1 1 1 0 1 0 0 1 1
0 0 0 0 0 0 0 0 0 0 0 -0 -0 -0 -0 -0 -0 -0 0 0 0 0 0 0 -0 0 0 0 0 0 0 0 -0 -0 -0 0 1 1 1 1 1 1 1 1
0 0 0 0 -0 0 0 0 0 -0 0 0 -0 -0 -0 -0 -0 -0 0 0 0 -0 -0 0 -0 -0 -0 0 -0 -0 0 0 -0 -0 -0 -0 1 1 1 1 1 1 1 1
-0 0 0 0 0 0 0 0 0 0 0 0 0 -0 -0 -0 -0 -0 0 0 -0 -0 -0 1 0 0 0 0 -0 0 -0 0 1 0 -0 0 1 1 1 1 1 1 1 1
-0 -0 -0 0 0 0 0 0 0 0 0 0 0 -0 -0 -0 -0 -0 0 0 -0 -0 0 0 0 0 0 0 0 0 1 1 1 1 1 1 1 1 1 1 1 1 1 1
-0 0 -0 -0 -0 0 0 -0 -0 -0 -0 -0 -0 -0 -0 -0 -0 -0 -0 -0 -0 -0 -0 -0 -0 0 1 1 1 1 2 1 3 3 2 1 1 1 2 1 1 2 2 2
0 -0 -0 -0 0 0 -0 -0 -0 -0 -0 -0 -0 -0 -0 -0 -0 -0 -0 -0 0 0 -0 -0 -0 0 0 0 0 1 2 2 2 4 3 2 2 2 2 2 1 1 2 2
0 0 0 -0 0 -0 -0 -0 0 0 -0 0 0 -0 -0 -0 0 0 0 0 0 0 0 -0 -0 0 0 0 0 0 1 2 2 4 4 3 4 4 2 2 2 1 1 2
0 0 -0 -0 -0 -0 -0 0 0 0 0 0 0 0 0 0 0 0 0 0 0 0 0 0 -0 -0 0 0 0 0 1 2 3 4 6 5 5 1 0 0 1 1 1 2
0 0 0 -0 0 -0 -0 0 0 0 0 0 0 0 0 0 0 0 0 0 0 0 0 0 0 0 0 0 0 0 0 2 3 4 7 7 6 4 2 0 0 0 0 0
0 0 0 0 -0 -0 -0 -0 -0 0 -0 -0 0 0 0 0 0 0 0 0 0 0 0 0 0 0 0 0 0 0 0 1 4 5 7 8 8 6 4 1 1 0 0 0
0 0 0 0 0 -0 -0 -0 0 -0 0 0 0 0 0 0 0 0 0 0 0 0 0 0 0 0 0 0 0 0 0 1 2 4 6 7 8 6 2 2 2 1 0 0
0 0 0 0 0 0 -0 -0 -0 0 0 0 0 0 0 0 0 0 0 0 0 0 0 0 0 0 0 0 0 0 0 0 0 3 3 4 6 7 3 3 3 1 1 0
0 0 0 0 0 0 0 -0 -0 -0 -0 0 0 0 0 0 0 0 0 0 0 0 0 0 0 0 0 0 0 0 0 0 0 1 2 3 3 2 6 6 3 1 0 0
0 0 0 0 0 0 -0 -0 -0 0 -0 -0 0 0 0 0 0 0 0 0 0 0 0 0 0 0 0 0 0 0 0 0 0 0 0 0 0 0 0 0 0 0 0 0
0 0 0 0 0 0 0 -0 -0 -0 -0 -0 -0 0 0 0 0 0 0 0 0 0 0 0 0 0 0 0 0 0 0 0 0 0 0 0 0 0 0 0 0 0 0 0
0 0 0 0 0 0 0 0 -0 -0 -0 -0 -0 -0 0 0 0 0 0 0 0 0 0 0 0 0 0 0 0 0 0 0 0 0 0 0 0 0 0 0 0 0 0 0
0 0 0 0 0 0 0 0 0 -0 -0 -0 -0 -0 -0 -0 0 0 0 0 0 0 0 0 0 0 0 0 0 0 0 0 0 0 0 0 0 0 0 0 0 0 0 0
0 0 0 0 0 0 0 0 0 0 0 -0 -0 0 -0 -0 0 0 0 0 0 0 0 0 0 0 0 0 0 0 0 0 0 0 0 0 0 0 0 0 0 0 0 0
0 0 0 0 -0 0 0 0 -0 0 0 -0 -0 -0 -0 0 0 0 0 0 0 0 0 0 0 0 0 0 0 0 0 0 0 0 0 0 0 0 0 0 0 0 0 0
0 0 0 0 0 0 0 0 -0 0 0 0 0 -0 -0 -0 -0 -0 -0 0 0 0 0 0 0 0 0 0 0 0 0 0 0 0 0 0 0 0 0 0 0 0 0 0
0 0 0 -0 0 -0 0 0 0 0 -0 -0 -0 -0 -0 -0 -0 -0 -0 0 0 0 0 0 0 0 0 0 0 0 0 0 0 0 0 0 0 0 0 0 0 0 0 0
0 0 0 -0 0 0 0 0 0 -0 0 -0 -0 -0 -0 -0 -0 0 0 0 0 0 0 0 0 0 0 0 0 0 0 0 0 0 0 0 0 0 0 0 0 0 0 0
0 0 0 0 0 0 0 0 0 0 0 0 -0 0 -0 -0 -0 -0 -0 0 0 0 0 -0 -0 -0 0 0 0 0 0 0 0 0 0 0 0 0 0 0 0 0 0 0
Wind_Speed_500mb
24 27 28 33 36 39 27 18 8 23 27 8 20 23 39 45 48 46 47 30 23 33 63 64 106 92 79 98 105 97 96 102 103 93 90 89 92 92 91 92 85 81 79 81
27 25 33 35 35 39 37 33 31 26 33 12 39 51 47 54 55 42 44 31 35 54 63 94 94 104 75 80 102 108 101 104 98 92 86 88 89 89 86 91 94 87 85 84
14 17 26 24 23 32 36 37 22 24 20 20 17 28 37 49 56 63 65 64 64 68 39 86 81 47 80 95 94 105 108 105 100 92 89 87 88 87 89 86 89 96 89 84
8 9 6 18 16 28 36 34 36 38 26 22 21 44 53 47 51 60 67 80 52 46 11 55 66 49 57 61 75 104 113 112 106 100 92 85 85 87 85 86 84 85 92 90
5 7 19 27 25 21 14 21 20 17 25 54 46 43 34 35 42 55 59 77 73 46 29 38 8 35 53 55 40 69 88 111 111 104 96 91 86 83 83 84 85 83 82 84
5 8 12 12 13 38 10 18 24 33 27 43 50 14 11 61 72 73 78 80 77 73 73 58 37 14 23 86 111 83 79 108 107 105 98 95 88 84 80 81 83 84 83 82
14 11 12 24 49 31 5 10 57 51 34 46 19 22 52 58 84 83 87 84 71 66 70 80 56 34 19 24 67 79 97 88 111 106 102 97 90 87 82 80 79 83 85 83
9 7 10 61 34 11 27 67 48 64 59 59 62 76 68 55 80 90 90 80 69 61 73 55 45 44 30 46 53 48 49 85 104 106 100 96 94 92 88 84 83 83 84 84
6 10 41 32 29 49 42 53 65 59 66 63 67 92 94 83 87 83 86 69 69 64 82 53 53 51 54 53 38 24 47 46 98 88 90 92 95 97 92 90 88 85 85 86
10 5 29 48 41 40 51 57 73 80 72 60 60 76 96 90 70 63 58 50 52 71 67 60 52 50 51 55 56 51 47 59 58 94 85 87 91 93 94 93 92 88 88 88
11 26 43 17 55 50 53 49 58 74 68 74 62 66 68 69 64 50 50 38 38 44 50 45 49 46 51 56 56 60 61 56 63 80 94 87 92 92 94 95 96 91 90 85
7 31 28 39 52 50 51 57 55 74 38 45 36 36 50 70 46 41 33 34 38 34 30 38 40 42 44 47 53 60 65 63 70 71 94 94 94 94 90 91 91 87 80 81
13 31 33 34 41 47 44 46 39 45 39 35 32 35 27 44 38 34 23 16 16 18 28 29 33 29 43 42 47 50 62 69 65 77 89 97 95 101 90 85 85 86 79 73
28 26 22 21 27 38 48 41 34 33 31 45 36 40 45 30 22 26 18 11 9 13 13 19 26 29 32 46 45 45 53 54 59 76 79 84 90 93 96 101 91 82 78 76
16 25 28 24 26 28 44 52 41 39 36 29 31 42 45 42 32 17 12 7 5 7 9 14 8 14 19 14 31 47 47 59 59 59 71 76 81 85 90 92 95 87 80 80
9 10 15 19 27 26 27 50 55 44 40 37 30 39 43 33 27 24 14 8 8 5 15 13 9 8 13 16 26 31 46 58 66 67 65 68 74 83 90 84 86 87 88 85
8 9 16 26 23 24 24 29 45 50 49 35 32 28 31 39 33 30 27 21 17 14 19 20 12 11 12 9 7 19 22 45 59 69 68 71 70 77 65 70 75 71 68 66
9 7 12 17 21 22 19 31 36 42 47 44 35 32 34 36 41 37 35 32 25 19 18 25 26 16 14 14 18 18 16 29 41 43 50 57 58 60 61 70 53 52 45 40
14 15 13 11 14 13 15 19 29 31 41 52 46 51 30 32 36 32 34 38 34 35 29 26 19 20 17 26 19 30 17 22 35 37 37 37 37 42 44 51 44 18 9 22
12 8 11 10 11 21 11 13 24 29 33 35 45 53 39 31 34 39 40 41 39 33 31 27 20 15 9 19 35 45 32 33 36 40 40 38 43 50 45 43 46 65 44 30
2 4 11 8 11 9 6 11 20 18 24 30 33 43 37 37 42 45 46 48 41 31 31 27 21 21 14 10 14 32 39 38 43 39 36 39 42 45 42 44 50 54 53 51
9 10 7 6 14 7 6 5 9 14 13 23 34 45 46 51 48 47 46 45 46 40 30 29 33 24 18 2 15 24 34 33 36 35 38 39 38 49 49 50 51 51 51 47
9 2 9 14 2 15 6 10 2 9 19 28 36 42 56 68 75 77 73 62 58 52 45 41 30 35 26 26 33 32 28 26 28 31 35 36 36 42 43 39 38 36 37 44
6 5 7 6 4 13 12 7 13 9 11 16 31 40 43 53 61 61 69 80 86 88 81 62 52 38 34 36 42 47 47 43 41 38 38 37 35 33 37 37 33 29 29 32
7 9 5 8 11 6 26 26 19 15 13 13 18 30 36 40 51 51 56 56 67 73 77 81 83 77 70 65 55 52 51 46 44 38 38 36 35 36 36 33 32 29 28 30
13 7 13 26 10 23 29 23 22 18 13 17 15 18 31 37 39 42 48 53 57 57 63 70 70 76 79 77 75 72 67 60 55 51 45 44 43 41 39 38 36 33 31 29
18 13 10 11 11 15 14 25 27 18 17 13 18 18 11 25 30 30 33 37 47 49 53 55 58 59 61 61 68 72 70 65 60 56 56 53 50 47 42 40 37 35 32 29
Wind_Direction_500mb
293 303 305 300 302 304 308 296 294 288 286 61 39 17 10 19 35 53 66 184 247 256 264 265 220 205 209 213 211 212 222 226 230 230 229 230 226 224 221 225 224 224 223 227
284 295 291 288 292 294 296 290 290 297 282 24 5 357 5 351 358 15 12 5 328 308 266 236 212 207 217 207 215 210 217 224 228 228 228 226 227 227 223 222 227 228 229 230
283 325 319 296 259 270 276 285 290 289 296 330 355 348 349 355 359 354 348 343 347 358 239 211 196 228 230 213 220 211 212 221 225 226 225 225 225 225 228 225 222 230 234 234
279 352 257 258 300 291 289 293 297 316 304 336 5 335 327 337 350 356 345 343 341 15 45 223 231 250 240 225 216 212 214 217 223 225 226 225 224 224 226 228 228 227 231 236
192 209 284 298 280 292 346 305 319 314 354 329 13 343 327 346 343 336 327 329 332 331 338 2 126 218 237 230 229 212 219 217 223 224 225 224 223 224 225 227 230 232 233 236
241 223 228 283 265 288 9 273 338 23 7 332 350 334 320 326 319 316 310 317 326 319 310 325 335 311 147 210 248 216 211 223 223 224 226 227 229 227 227 228 230 233 236 238
234 244 272 11 342 332 219 314 335 341 347 322 317 296 311 321 310 311 308 313 307 307 300 303 311 310 266 197 204 235 233 227 226 225 227 230 230 230 230 231 232 234 238 241
338 256 248 5 355 3 331 316 323 316 315 312 308 307 313 320 313 307 300 297 287 285 288 295 312 308 302 230 229 234 230 224 229 227 226 228 228 231 232 232 233 235 236 239
271 282 315 337 324 313 320 313 313 309 297 294 298 299 305 309 309 301 295 267 267 273 276 282 283 291 304 314 294 260 244 234 224 226 226 227 227 227 229 230 232 233 233 237
311 269 309 318 319 320 322 311 308 306 295 291 287 287 290 292 291 291 266 253 246 252 268 278 276 271 279 291 297 271 262 242 237 226 224 223 228 227 226 229 229 230 232 234
255 287 314 307 315 318 316 311 317 322 284 280 280 282 278 283 292 243 251 259 260 255 265 275 275 262 263 272 280 277 259 255 242 231 224 223 224 224 226 232 234 235 237 236
265 307 311 305 321 330 324 323 319 341 314 293 290 286 275 263 248 216 227 229 243 252 261 264 269 268 263 260 265 268 258 250 245 234 225 222 220 220 223 228 232 238 245 243
252 306 299 316 326 340 325 326 307 340 351 331 354 344 312 252 202 174 168 184 208 237 252 257 258 263 259 257 259 254 252 246 240 231 218 219 219 222 219 225 229 232 236 236
268 288 299 305 326 342 356 343 351 323 328 358 355 0 352 51 103 124 125 151 194 216 248 259 257 254 272 257 254 250 244 233 227 222 211 217 221 224 227 227 226 219 226 226
259 266 279 314 326 338 8 6 357 2 355 348 7 359 11 11 29 59 91 92 205 207 246 259 266 236 240 260 258 250 246 226 223 217 214 220 222 223 229 230 225 224 223 220
318 319 335 314 319 345 336 6 13 5 2 1 353 9 8 5 9 11 17 13 349 326 308 274 297 344 204 235 240 257 242 241 233 224 225 228 229 221 223 223 223 221 222 222
262 309 326 337 344 343 337 350 12 12 13 9 5 1 1 7 8 12 11 5 0 351 316 307 279 306 27 49 161 208 223 242 242 233 228 227 229 228 209 205 215 214 209 213
272 290 302 316 322 344 351 349 2 21 22 13 13 9 8 13 7 14 18 17 17 4 343 313 302 315 345 50 135 135 174 188 211 210 216 210 210 213 185 177 174 186 190 197
234 268 281 312 306 306 329 354 11 8 21 24 23 16 12 12 14 18 29 30 26 21 357 331 311 304 42 25 87 97 109 142 142 150 148 155 158 149 164 170 176 277 203 202
242 242 340 19 312 329 340 336 351 16 18 17 20 10 20 24 27 27 33 29 36 18 1 347 349 349 328 32 74 109 97 106 122 131 147 149 137 133 135 138 155 181 205 203
159 306 315 331 302 281 298 324 340 350 23 24 20 16 26 28 34 25 33 30 27 28 16 3 12 25 24 53 77 108 114 115 109 108 121 126 134 137 138 145 152 160 169 170
263 154 321 324 350 259 275 335 338 8 26 37 24 22 27 32 37 40 36 36 35 46 48 27 33 48 53 129 135 114 94 89 80 96 112 112 113 125 125 131 129 138 142 150
285 0 4 343 4 17 260 340 193 35 40 47 35 50 59 55 51 50 44 43 47 51 56 61 61 63 74 79 95 105 99 90 87 88 92 101 113 113 123 128 134 136 137 133
190 187 307 332 124 37 10 145 77 70 79 55 55 64 57 50 50 54 55 53 53 53 54 56 64 64 59 61 68 73 83 87 83 80 90 104 109 113 115 119 128 130 126 133
279 84 49 326 39 103 114 134 102 97 76 84 52 41 46 56 54 49 44 52 54 52 56 54 59 63 63 63 68 71 71 72 75 80 82 83 89 98 106 111 114 121 122 126
306 260 296 295 103 79 87 98 101 86 121 77 89 32 35 38 45 37 37 44 50 45 49 49 50 54 57 58 60 64 65 67 70 71 74 77 80 82 86 93 101 107 112 114
41 86 21 11 100 81 96 110 111 81 89 98 70 81 40 47 50 46 34 33 43 49 49 50 52 52 48 48 53 55 60 64 65 69 71 74 75 77 81 84 86 88 93 101
Wind_Speed_850mb
24 27 28 33 36 39 27 18 8 23 27 8 20 23 39 45 48 46 47 30 23 33 63 64 106 92 79 98 105 97 96 102 103 93 90 89 92 92 91 92 85 81 79 81
27 25 33 35 35 39 37 33 31 26 33 12 39 51 47 54 55 42 44 31 35 54 63 94 94 104 75 80 102 108 101 104 98 92 86 88 89 89 86 91 94 87 85 84
14 17 26 24 23 32 36 37 22 24 20 20 17 28 37 49 56 63 65 64 64 68 39 86 81 47 80 95 94 105 108 105 100 92 89 87 88 87 89 86 89 96 89 84
8 9 6 18 16 28 36 34 36 38 26 22 21 44 53 47 51 60 67 80 52 46 11 55 66 49 57 61 75 104 113 112 106 100 92 85 85 87 85 86 84 85 92 90
5 7 19 27 25 21 14 21 20 17 25 54 46 43 34 35 42 55 59 77 73 46 29 38 8 35 53 55 40 69 88 111 111 104 96 91 86 83 83 84 85 83 82 84
5 8 12 12 13 38 10 18 24 33 27 43 50 14 11 61 72 73 78 80 77 73 73 58 37 14 23 86 111 83 79 108 107 105 98 95 88 84 80 81 83 84 83 82
14 11 12 24 49 31 5 10 57 51 34 46 19 22 52 58 84 83 87 84 71 66 70 80 56 34 19 24 67 79 97 88 111 106 102 97 90 87 82 80 79 83 85 83
9 7 10 61 34 11 27 67 48 64 59 59 62 76 68 55 80 90 90 80 69 61 73 55 45 44 30 46 53 48 49 85 104 106 100 96 94 92 88 84 83 83 84 84
6 10 41 32 29 49 42 53 65 59 66 63 67 92 94 83 87 83 86 69 69 64 82 53 53 51 54 53 38 24 47 46 98 88 90 92 95 97 92 90 88 85 85 86
10 5 29 48 41 40 51 57 73 80 72 60 60 76 96 90 70 63 58 50 52 71 67 60 52 50 51 55 56 51 47 59 58 94 85 87 91 93 94 93 92 88 88 88
11 26 43 17 55 50 53 49 58 74 68 74 62 66 68 69 64 50 50 38 38 44 50 45 49 46 51 56 56 60 61 56 63 80 94 87 92 92 94 95 96 91 90 85
7 31 28 39 52 50 51 57 55 74 38 45 36 36 50 70 46 41 33 34 38 34 30 38 40 42 44 47 53 60 65 63 70 71 94 94 94 94 90 91 91 87 80 81
13 31 33 34 41 47 44 46 39 45 39 35 32 35 27 44 38 34 23 16 16 18 28 29 33 29 43 42 47 50 62 69 65 77 89 97 95 101 90 85 85 86 79 73
28 26 22 21 27 38 48 41 34 33 31 45 36 40 45 30 22 26 18 11 9 13 13 19 26 29 32 46 45 45 53 54 59 76 79 84 90 93 96 101 91 82 78 76
16 25 28 24 26 28 44 52 41 39 36 29 31 42 45 42 32 17 12 7 5 7 9 14 8 14 19 14 31 47 47 59 59 59 71 76 81 85 90 92 95 87 80 80
9 10 15 19 27 26 27 50 55 44 40 37 30 39 43 33 27 24 14 8 8 5 15 13 9 8 13 16 26 31 46 58 66 67 65 68 74 83 90 84 86 87 88 85
8 9 16 26 23 24 24 29 45 50 49 35 32 28 31 39 33 30 27 21 17 14 19 20 12 11 12 9 7 19 22 45 59 69 68 71 70 77 65 70 75 71 68 66
9 7 12 17 21 22 19 31 36 42 47 44 35 32 34 36 41 37 35 32 25 19 18 25 26 16 14 14 18 18 16 29 41 43 50 57 58 60 61 70 53 52 45 40
14 15 13 11 14 13 15 19 29 31 41 52 46 51 30 32 36 32 34 38 34 35 29 26 19 20 17 26 19 30 17 22 35 37 37 37 37 42 44 51 44 18 9 22
12 8 11 10 11 21 11 13 24 29 33 35 45 53 39 31 34 39 40 41 39 33 31 27 20 15 9 19 35 45 32 33 36 40 40 38 43 50 45 43 46 65 44 30
2 4 11 8 11 9 6 11 20 18 24 30 33 43 37 37 42 45 46 48 41 31 31 27 21 21 14 10 14 32 39 38 43 39 36 39 42 45 42 44 50 54 53 51
9 10 7 6 14 7 6 5 9 14 13 23 34 45 46 51 48 47 46 45 46 40 30 29 33 24 18 2 15 24 34 33 36 35 38 39 38 49 49 50 51 51 51 47
9 2 9 14 2 15 6 10 2 9 19 28 36 42 56 68 75 77 73 62 58 52 45 41 30 35 26 26 33 32 28 26 28 31 35 36 36 42 43 39 38 36 37 44
6 5 7 6 4 13 12 7 13 9 11 16 31 40 43 53 61 61 69 80 86 88 81 62 52 38 34 36 42 47 47 43 41 38 38 37 35 33 37 37 33 29 29 32
7 9 5 8 11 6 26 26 19 15 13 13 18 30 36 40 51 51 56 56 67 73 77 81 83 77 70 65 55 52 51 46 44 38 38 36 35 36 36 33 32 29 28 30
13 7 13 26 10 23 29 23 22 18 13 17 15 18 31 37 39 42 48 53 57 57 63 70 70 76 79 77 75 72 67 60 55 51 45 44 43 41 39 38 36 33 31 29
18 13 10 11 11 15 14 25 27 18 17 13 18 18 11 25 30 30 33 37 47 49 53 55 58 59 61 61 68 72 70 65 60 56 56 53 50 47 42 40 37 35 32 29
Wind_Direction_850mb
293 303 305 300 302 304 308 296 294 288 286 61 39 17 10 19 35 53 66 184 247 256 264 265 220 205 209 213 211 212 222 226 230 230 229 230 226 224 221 225 224 224 223 227
284 295 291 288 292 294 296 290 290 297 282 24 5 357 5 351 358 15 12 5 328 308 266 236 212 207 217 207 215 210 217 224 228 228 228 226 227 227 223 222 227 228 229 230
283 325 319 296 259 270 276 285 290 289 296 330 355 348 349 355 359 354 348 343 347 358 239 211 196 228 230 213 220 211 212 221 225 226 225 225 225 225 228 225 222 230 234 234
279 352 257 258 300 291 289 293 297 316 304 336 5 335 327 337 350 356 345 343 341 15 45 223 231 250 240 225 216 212 214 217 223 225 226 225 224 224 226 228 228 227 231 236
192 209 284 298 280 292 346 305 319 314 354 329 13 343 327 346 343 336 327 329 332 331 338 2 126 218 237 230 229 212 219 217 223 224 225 224 223 224 225 227 230 232 233 236
241 223 228 283 265 288 9 273 338 23 7 332 350 334 320 326 319 316 310 317 326 319 310 325 335 311 147 210 248 216 211 223 223 224 226 227 229 227 227 228 230 233 236 238
234 244 272 11 342 332 219 314 335 341 347 322 317 296 311 321 310 311 308 313 307 307 300 303 311 310 266 197 204 235 233 227 226 225 227 230 230 230 230 231 232 234 238 241
338 256 248 5 355 3 331 316 323 316 315 312 308 307 313 320 313 307 300 297 287 285 288 295 312 308 302 230 229 234 230 224 229 227 226 228 228 231 232 232 233 235 236 239
271 282 315 337 324 313 320 313 313 309 297 294 298 299 305 309 309 301 295 267 267 273 276 282 283 291 304 314 294 260 244 234 224 226 226 227 227 227 229 230 232 233 233 237
311 269 309 318 319 320 322 311 308 306 295 291 287 287 290 292 291 291 266 253 246 252 268 278 276 271 279 291 297 271 262 242 237 226 224 223 228 227 226 229 229 230 232 234
255 287 314 307 315 318 316 311 317 322 284 280 280 282 278 283 292 243 251 259 260 255 265 275 275 262 263 272 280 277 259 255 242 231 224 223 224 224 226 232 234 235 237 236
265 307 311 305 321 330 324 323 319 341 314 293 290 286 275 263 248 216 227 229 243 252 261 264 269 268 263 260 265 268 258 250 245 234 225 222 220 220 223 228 232 238 245 243
252 306 299 316 326 340 325 326 307 340 351 331 354 344 312 252 202 174 168 184 208 237 252 257 258 263 259 257 259 254 252 246 240 231 218 219 219 222 219 225 229 232 236 236
268 288 299 305 326 342 356 343 351 323 328 358 355 0 352 51 103 124 125 151 194 216 248 259 257 254 272 257 254 250 244 233 227 222 211 217 221 224 227 227 226 219 226 226
259 266 279 314 326 338 8 6 357 2 355 348 7 359 11 11 29 59 91 92 205 207 246 259 266 236 240 260 258 250 246 226 223 217 214 220 222 223 229 230 225 224 223 220
318 319 335 314 319 345 336 6 13 5 2 1 353 9 8 5 9 11 17 13 349 326 308 274 297 344 204 235 240 257 242 241 233 224 225 228 229 221 223 223 223 221 222 222
262 309 326 337 344 343 337 350 12 12 13 9 5 1 1 7 8 12 11 5 0 351 316 307 279 306 27 49 161 208 223 242 242 233 228 227 229 228 209 205 215 214 209 213
272 290 302 316 322 344 351 349 2 21 22 13 13 9 8 13 7 14 18 17 17 4 343 313 302 315 345 50 135 135 174 188 211 210 216 210 210 213 185 177 174 186 190 197
234 268 281 312 306 306 329 354 11 8 21 24 23 16 12 12 14 18 29 30 26 21 357 331 311 304 42 25 87 97 109 142 142 150 148 155 158 149 164 170 176 277 203 202
242 242 340 19 312 329 340 336 351 16 18 17 20 10 20 24 27 27 33 29 36 18 1 347 349 349 328 32 74 109 97 106 122 131 147 149 137 133 135 138 155 181 205 203
159 306 315 331 302 281 298 324 340 350 23 24 20 16 26 28 34 25 33 30 27 28 16 3 12 25 24 53 77 108 114 115 109 108 121 126 134 137 138 145 152 160 169 170
263 154 321 324 350 259 275 335 338 8 26 37 24 22 27 32 37 40 36 36 35 46 48 27 33 48 53 129 135 114 94 89 80 96 112 112 113 125 125 131 129 138 142 150
285 0 4 343 4 17 260 340 193 35 40 47 35 50 59 55 51 50 44 43 47 51 56 61 61 63 74 79 95 105 99 90 87 88 92 101 113 113 123 128 134 136 137 133
190 187 307 332 124 37 10 145 77 70 79 55 55 64 57 50 50 54 55 53 53 53 54 56 64 64 59 61 68 73 83 87 83 80 90 104 109 113 115 119 128 130 126 133
279 84 49 326 39 103 114 134 102 97 76 84 52 41 46 56 54 49 44 52 54 52 56 54 59 63 63 63 68 71 71 72 75 80 82 83 89 98 106 111 114 121 122 126
306 260 296 295 103 79 87 98 101 86 121 77 89 32 35 38 45 37 37 44 50 45 49 49 50 54 57 58 60 64 65 67 70 71 74 77 80 82 86 93 101 107 112 114
41 86 21 11 100 81 96 110 111 81 89 98 70 81 40 47 50 46 34 33 43 49 49 50 52 52 48 48 53 55 60 64 65 69 71 74 75 77 81 84 86 88 93 101